Overview Statistics Trail Chart Weather Telemetry Raw packets
 

This is the latest recevied weather packets stored in our database for station/object N0OQA. If no packets are shown the sender has not sent any weather packets the latest 10 day(s).

<< 43 44 45 46 47 48 49 >>
Time Temp. Humidity Pressure Rain* Wind** Luminosity Snow
1788016006 20° C 100% 1015.2 hPa 10.92 mm - - -
1788015706 20° C 100% 1015.2 hPa 10.92 mm - - -
1788014805 19.44° C 100% 1015.3 hPa 10.92 mm - - -
1788014504 19.44° C 100% 1015.4 hPa 10.92 mm - - -
1788014204 19.44° C 100% 1015.6 hPa 10.92 mm - - -
1788013603 19.44° C 100% 1016.1 hPa 10.92 mm - - -
1788013303 19.44° C 100% 1016.1 hPa 10.92 mm - - -
1788013002 19.44° C 100% 1016.1 hPa 10.92 mm - - -
1788012702 19.44° C 100% 1016.3 hPa 10.92 mm - - -
1788012402 19.44° C 100% 1016.4 hPa 10.92 mm - - -
1788012102 19.44° C 100% 1016.3 hPa 10.92 mm - - -
1788011501 19.44° C 100% 1016.4 hPa 10.67 mm - - -
1788011201 19.44° C 100% 1016.5 hPa 10.41 mm - - -
1788010600 19.44° C 100% 1016.6 hPa 10.16 mm - - -
1788009699 19.44° C 100% 1015.5 hPa 9.91 mm - - -
1788009399 19.44° C 100% 1015.3 hPa 9.4 mm - - -
1788009099 19.44° C 100% 1015.7 hPa 7.87 mm - - -
1788008798 19.44° C 100% 1015.8 hPa 7.37 mm - - -
1788008498 19.44° C 100% 1015.6 hPa 7.11 mm - - -
1788007597 19.44° C 100% 1015.8 hPa 7.11 mm - - -
1788007297 19.44° C 100% 1015.9 hPa 7.11 mm - - -
1788007008 19.44° C 100% 1016.1 hPa 7.11 mm - - -
1788006696 19.44° C 100% 1016 hPa 7.11 mm - - -
1788006396 19.44° C 100% 1015.2 hPa 7.11 mm - - -
1788006096 19.44° C 100% 1015.8 hPa 7.11 mm - - -

* Rain since midnight (hover to see other rain measurements)
** Current wind speed in m/s (hover to see current wind gust speed)